GSAT-18

Last updated on Tue Sep 16 2025 00:02:49 GMT+0000 (Coordinated Universal Time)

1 41793U 16060A 25258.59922269 -.00000093 00000+0 00000+0 0 9994 2 41793 0.0178 198.4961 0001909 230.9575 215.0127 1.00271119 32779
UTC large
Height (km)
Speed (km/s)
/
Latitude / Longitude
Inclination (degrees)
Orbital Period (minutes)
Azimuth
Elevation
Range (km)
Doppler Factor

Next 0 passes for location: London (51.5072 / 0.1276)

Sorry there are no passes over London.